PEGASUS DEB, 39927

Orbit data source: Space-Track

PEGASUS DEB, 39927 is space debris in LEO originally from a launch on Thu, 19 May 1994 UTC launched from the Air Force Western Test Range (AFWTR). Debris objects in space refer to the collection of defunct objects orbiting the Earth. Examples of debris include non-operational satellites, rocket bodies, and fragments generated from explosions, collisions, or faulty payload assembly.

Loading next visibility...
Identifier
39927, 1994-029AGA
Orbit
LEO
Country
Flag of USUS
Related business
Manufacturer
Unknown
Mission
Spacecraft
Bus & Motor
Unknown
Mass
Unknown
Launch date (UTC)
1994-05-19 (32 years ago)
Launch vehicle
Unknown
Launch site
Air Force Western Test Range (AFWTR)
Object type
Payload
Rocket body
Debris
Shape & HBR
Unknown shape, 0.1 m
Radar Cross Section
Small (<0.1 m²)

Expand to show TLE details & history
Last TLE update: 1 week ago

TLE from 1 week ago
0 PEGASUS DEB
1 39927U 94029AGA 26153.44936484  .00189803  00000-0  13269-2 0  9995
2 39927  81.7854 203.4593 0015848 216.3421 143.6766 15.73537532654971
Epoch: 2026-06-02T10:47Z
TLE epoch observation values (Epoch: 2026-06-02T10:47:05.122Z)
Latitude
0.00001°
Longitude
150.76579°
Altitude
360.531 km
Speed
7.688 km/s
True Right ascension
13h 33m 50s
True Declination
0° 00' 00"
Sunlit
Object was in full shadow at epoch
Visualization orbit readout
Latitude
Unknown
Longitude
Unknown
Altitude
Unknown
Speed
Unknown
Apparent Right ascension
Unknown
Apparent Declination
Unknown
Sunlit
N/A
Visualization observer readout
Local Sidereal Time
19:52:18
Azimuth
Unknown
Elevation
Unknown
Doppler factor
Unknown
Orbital elements
Apogee altitude
356.384 km
Perigee altitude
335.072 km
Semi-major axis
6,723.865 km
Eccentricity
0.00158
Inclination
81.7854°
RAAN
203.4593°
Arg. of periapsis
216.3421°
True anomaly
143.784°
Mean anomaly
143.6766°
Eccentric anomaly
143.73032°
Mean motion
3.93654 °/min
Orbital period
91.45 mins
BSTAR
0.0013269
Loading maneuver chart data...
Computing Atmospheric mass density...

Documentation

Showing up to 5 results
|